Flag for Liberia Weather past 2 weeks in Kakata, Liberia

Now
73 °F

Passing clouds.


Feels Like: 70 °F
Forecast: 72 / 82 °F
Wind: No wind

Location: Roberts Field

Current Time: Sep 19, 2014 at 1:54:10 AM

Latest Report: Sep 19, 2014 at 12:30 AM


Visibility: N/A

Pressure: 29.95 "Hg

Humidity: 94%

Dew point: 72 °F

Location of KakataLocation

Historic Weather in Kakata — Graph

°F

Kakata temperature yesterday

Maximum temperature yesterday: 79 °F (at 10:00 AM)
Minimum temperature yesterday: 73 °F (at 2:00 AM)
Average temperature yesterday: 76 °F

Past Weeks' High & Low Weather Summary

 TemperatureHumidityPressure
High86 °F (Sep 4, 2:00 PM)100% (Sep 16, 7:30 AM)30.04 "Hg (Sep 16, 7:30 AM)
Low73 °F (Sep 8, 6:00 AM)66% (Sep 8, 2:30 PM)29.83 "Hg (Sep 12, 5:30 PM)
Average78 °F90%29.93 "Hg
* Reported Midnight between Sep 3 and Sep 4 — Sep 19 12:30 AM, Kakata, Weather by CustomWeather, © 2014

Note: Actual official high and low records may vary slightly from our data, if they occured in-between our weather recording intervals... More about our weather records

Advertising

Kakata weather history for previous 24 hours

 ConditionsComfort  
Time TempWeatherWind HumidityBarometerVisibility
12:30 AM
Sep 19
73 °FPassing clouds.No wind94%29.95 "HgN/A
12:00 AM73 °FPassing clouds.No wind94%29.95 "HgN/A
11:00 PM
Sep 18
73 °FPassing clouds.No wind94%29.98 "HgN/A
10:30 PM73 °FPassing clouds.3 mph94%29.98 "HgN/A
10:00 PM73 °FPassing clouds.3 mph94%29.98 "HgN/A
9:30 PM73 °FPassing clouds.No wind94%29.95 "HgN/A
9:00 PM73 °FPassing clouds.No wind94%29.95 "HgN/A
8:30 PM73 °FPassing clouds.No wind94%29.92 "HgN/A
8:00 PM75 °FPassing clouds.No wind94%29.92 "HgN/A
7:30 PM75 °FPartly sunny.No wind94%29.92 "HgN/A
7:00 PM75 °FPartly sunny.No wind94%29.92 "HgN/A
6:30 PM75 °FDrizzle. Partly sunny.No wind94%29.92 "Hg6 mi
6:00 PM75 °FDrizzle. Partly sunny.8 mph94%29.92 "Hg6 mi
5:30 PM75 °FDrizzle. Partly sunny.8 mph94%29.92 "Hg5 mi
5:00 PM77 °FDrizzle. Partly sunny.5 mph94%29.89 "Hg5 mi
4:30 PM77 °FDrizzle. Partly sunny.8 mph94%29.89 "Hg6 mi
4:00 PM77 °FDrizzle. Partly sunny.8 mph94%29.89 "Hg6 mi
3:30 PM77 °FLight rain. Partly sunny.8 mph94%29.89 "Hg6 mi
3:00 PM79 °FPartly sunny.9 mph89%29.89 "HgN/A
2:30 PM79 °FPartly sunny.3 mph89%29.92 "HgN/A
2:00 PM79 °FPartly sunny.7 mph89%29.92 "HgN/A
1:30 PM79 °FRain. Partly sunny.10 mph89%29.92 "HgN/A
1:00 PM77 °FLight rain. Partly sunny.12 mph94%29.95 "Hg6 mi
12:30 PM77 °FLight rain. Partly sunny.7 mph94%29.95 "Hg6 mi
12:00 PM77 °FLight rain. Partly sunny.7 mph94%29.95 "Hg6 mi
11:30 AM77 °FLight rain. Partly sunny.8 mph94%29.98 "Hg6 mi
11:00 AM77 °FLight rain. Partly sunny.12 mph94%29.98 "Hg6 mi
10:30 AM79 °FLight rain. Partly sunny.No wind84%29.98 "Hg6 mi
10:00 AM79 °FPartly sunny.No wind84%29.98 "HgN/A
9:30 AM77 °FPartly sunny.No wind94%29.98 "HgN/A
9:00 AM77 °FPartly sunny.No wind94%29.98 "HgN/A
8:30 AM75 °FScattered clouds.No wind94%29.95 "HgN/A
7:30 AM75 °FPassing clouds.No wind94%29.92 "HgN/A
7:00 AM73 °FPassing clouds.No wind94%29.92 "HgN/A
6:30 AM73 °FPassing clouds.No wind94%29.92 "HgN/A
6:00 AM73 °FPassing clouds.No wind94%29.92 "HgN/A
5:30 AM73 °FPassing clouds.No wind94%29.89 "HgN/A
3:00 AM73 °FPassing clouds.No wind94%29.92 "HgN/A
2:30 AM73 °FPassing clouds.No wind94%29.92 "HgN/A
2:00 AM73 °FPassing clouds.No wind94%29.92 "HgN/A
1:30 AM75 °FPassing clouds.No wind94%29.95 "HgN/A
1:00 AM75 °FPassing clouds.No wind94%29.95 "HgN/A
Weather by CustomWeather, © 2014

See weather overviewHow to use our weather pages